Location: Laan Hart van Zuid
(52.2563°N, 6.7904°E)
Time: 09:54:53
(UTC+02:00)

ISS - Pass Details

Date: 24 May 2024
Orbit: 411 x 419 km, 51.6° (Epoch: 29 May)

Event Time Altitude Azimuth Distance (km) Brightness Sun altitude
Rises 23:14:40 0° 279° (W) 2,369 0.7 -11.1°
Reaches altitude 10° 23:17:23 10° 256° (WSW) 1,499 -0.7 -11.3°
Maximum altitude 23:19:25 15° 219° (SW) 1,214 -1.6 -11.4°
Enters shadow 23:20:50 12° 190° (S) 1,353 -1.6 -11.6°
